Flag for Mexico Weather past 2 weeks in Ojinaga, Chihuahua, Mexico

37 °F


Feels Like: 37 °F
Forecast: 39 / 63 °F
Wind: No wind

Location: Marfa Municipal Airport

Current Time: Dec 1, 2015 at 12:35:36 AM

Latest Report: Nov 30, 2015 at 11:55 PM

Visibility: 10 mi

Pressure: 30.08 "Hg (27.29 "Hg at 788m altitude)

Humidity: 87%

Dew point: 34 °F

Location of OjinagaLocation

Historic Weather in Ojinaga — Graph


Ojinaga temperature yesterday

Maximum temperature yesterday: 61 °F (at 10:55 AM)
Minimum temperature yesterday: 36 °F (at 5:35 AM)
Average temperature yesterday: 46 °F

Past Weeks' High & Low Weather Summary

High77 °F (Nov 25, 1:15 PM)100% (Nov 15, 11:55 PM)30.38 "Hg (Nov 15, 11:55 PM)
Low19 °F (Nov 22, 3:15 AM)14% (Nov 20, 1:55 PM)29.62 "Hg (Nov 16, 4:35 PM)
Average46 °F65%30.10 "Hg
* Reported Nov 15 11:55 PM — Nov 30 11:15 PM, Ojinaga, Weather by CustomWeather, © 2015

Note: Actual official high and low records may vary slightly from our data, if they occured in-between our weather recording intervals... More about our weather records


Ojinaga weather history for previous 24 hours

Time TempWeatherWind HumidityBarometerVisibility
11:15 PM
Mon, Nov 30
37 °FClear.No wind87%30.09 "Hg10 mi
10:55 PM37 °FClear.No wind87%30.10 "Hg10 mi
10:35 PM37 °FClear.No wind87%30.10 "Hg10 mi
9:55 PM37 °FClear.3 mph87%30.10 "Hg10 mi
9:15 PM39 °FClear.No wind81%30.09 "Hg10 mi
8:55 PM39 °FClear.3 mph87%30.10 "Hg10 mi
8:35 PM39 °FClear.No wind81%30.10 "Hg10 mi
7:55 PM43 °FClear.3 mph71%30.09 "Hg10 mi
7:35 PM41 °FClear.3 mph76%30.09 "Hg10 mi
6:55 PM45 °FClear.No wind66%30.08 "Hg10 mi
5:55 PM48 °FClear.3 mph50%30.07 "Hg10 mi
4:35 PM52 °FSunny.7 mph41%30.06 "Hg10 mi
3:15 PM55 °FSunny.16 mph31%30.06 "Hg10 mi
2:55 PM55 °FSunny.17 mph31%30.06 "Hg10 mi
2:35 PM57 °FSunny.15 mph27%30.06 "Hg10 mi
1:55 PM59 °FSunny.16 mph29%30.05 "Hg10 mi
1:35 PM59 °FSunny.17 mph27%30.06 "Hg10 mi
1:15 PM61 °FSunny.16 mph27%30.06 "Hg10 mi
12:55 PM61 °FSunny.17 mph29%30.06 "Hg10 mi
12:35 PM61 °FSunny.18 mph29%30.07 "Hg10 mi
12:15 PM61 °FSunny.20 mph31%30.08 "Hg10 mi
11:55 AM59 °FSunny.18 mph34%30.09 "Hg10 mi
11:35 AM61 °FSunny.18 mph34%30.10 "Hg10 mi
11:15 AM61 °FSunny.16 mph31%30.11 "Hg10 mi
10:55 AM61 °FSunny.16 mph34%30.11 "Hg10 mi
10:35 AM59 °FSunny.16 mph36%30.11 "Hg10 mi
10:15 AM57 °FSunny.16 mph36%30.12 "Hg10 mi
9:55 AM54 °FSunny.15 mph44%30.13 "Hg10 mi
9:35 AM46 °FSunny.10 mph66%30.12 "Hg10 mi
8:55 AM43 °FSunny.No wind87%30.12 "Hg10 mi
8:35 AM43 °FSunny.3 mph100%30.11 "Hg10 mi
8:15 AM43 °FSunny.5 mph93%30.11 "Hg10 mi
7:55 AM39 °FSunny.3 mph100%30.10 "Hg10 mi
7:35 AM39 °FSunny.5 mph93%30.09 "Hg10 mi
7:15 AM37 °FScattered clouds.5 mph93%30.08 "Hg9 mi
6:55 AM36 °FLow clouds.5 mph100%30.08 "Hg0 mi
6:35 AM36 °FLow clouds.5 mph100%30.07 "Hg0 mi
6:15 AM36 °FLow clouds.3 mph100%30.07 "Hg1 mi
5:55 AM36 °FLow clouds.6 mph100%30.05 "Hg1 mi
5:35 AM36 °FPassing clouds.5 mph100%30.04 "Hg1 mi
5:15 AM37 °FPassing clouds.No wind93%30.04 "Hg1 mi
4:55 AM39 °FLow clouds.3 mph93%30.03 "Hg1 mi
4:35 AM39 °FLow clouds.No wind93%30.03 "Hg0 mi
4:15 AM37 °FLow clouds.3 mph100%30.02 "Hg2 mi
3:55 AM39 °FLow clouds.No wind93%30.02 "Hg0 mi
3:35 AM39 °FLow clouds.3 mph93%30.02 "Hg1 mi
3:15 AM41 °FLow clouds.5 mph93%30.02 "Hg0 mi
2:55 AM39 °FLow clouds.6 mph100%30.02 "Hg0 mi
2:35 AM39 °FLow clouds.5 mph100%30.01 "Hg0 mi
2:15 AM39 °FLow clouds.6 mph93%30.02 "Hg3 mi
1:55 AM37 °FLow clouds.6 mph100%30.02 "Hg2 mi
1:35 AM39 °FLow clouds.5 mph100%30.03 "Hg1 mi
12:55 AM43 °FLow clouds.5 mph100%30.04 "Hg1 mi
12:15 AM43 °FLow clouds.3 mph100%30.04 "Hg1 mi
Weather by CustomWeather, © 2015

See weather overviewHow to use our weather pages